Location: Larkspur
(54.4391°N, 113.7691°W)
Time: 14:37:29
(UTC+00:00)

Oscar 19 - Pass Details

Date: 08 December 2023
Orbit: 771 x 789 km, 98.9° (Epoch: 01 March)

Event Time Altitude Azimuth Distance (km) Brightness Sun altitude
Rises 23:57:32 0° 189° (S) 3,235 14.5 -6.3°
Reaches altitude 10° 00:00:01 10° 198° (SSW) 2,314 13.9 -6.6°
Maximum altitude 00:04:41 35° 264° (W) 1,231 12.4 -7.2°
Drops below altitude 10° 00:09:23 10° 330° (NNW) 2,335 13.1 -7.8°
Sets 00:11:54 0° 339° (NNW) 3,269 13.8 -8.1°
